Back to catalog

OPS 3151 DEB

AliveMEO
NORAD 9856·DEBRIS·🇺🇸 United States

Launched Feb 6, 1977 from Cape Canaveral Space Force Station

Loading…

Next Passes (next 24 hours)

TLE

FreshSource: Mike McCants

Epoch: Sep 15, 2026, 03:43 UTC

1 09856U 77007D   26258.15533595  .00000000  00000-0  00000-0 0    01
2 09856   2.6958 256.8196 0235439 151.3288 209.9987  1.00594901 45261

Track OPS 3151 DEB in real time with AllMySat

Download on the App Store